SCP
0 0 0 0 0 0 0 0 0 0 0 0 0 0 0 0 0 0 0 0 0 0 0 0 0 0 0 0 0 0 0 0 0 0 0 0 0 0 0 0 0 0 0 0
0 0 0 0 0 0 0 0 0 0 0 0 0 0 0 0 0 0 0 0 0 0 0 0 0 0 0 0 0 1 1 0 0 0 0 0 0 0 0 0 0 0 0 0
0 0 0 0 0 0 0 0 0 0 0 0 0 0 0 0 0 0 0 0 0 0 0 0 0 0 0 0 0 1 1 0 0 0 0 0 0 0 0 0 0 0 0 0
0 0 0 0 0 0 0 0 0 0 0 0 0 0 0 0 0 0 0 0 0 0 0 0 0 0 0 0 0 0 0 0 0 0 0 0 0 0 0 0 0 0 0 0
0 0 0 0 0 0 0 0 0 0 0 0 0 0 0 0 0 0 0 0 0 0 0 0 0 0 0 0 0 0 0 0 0 0 0 0 0 0 0 0 0 0 0 0
-0 0 0 0 0 0 0 0 0 0 0 0 0 0 0 0 0 0 0 0 0 0 0 0 0 0 0 0 0 0 0 0 0 0 0 0 0 0 0 0 0 0 0 0
-0 -0 0 0 0 0 0 0 0 0 0 0 0 0 0 0 0 0 0 0 0 0 0 0 0 0 0 0 0 0 0 0 0 0 0 0 0 0 0 0 0 0 0 0
-0 -0 -0 0 0 0 0 0 0 0 0 0 0 0 0 0 0 0 0 0 0 0 0 0 0 0 0 0 0 0 0 0 0 0 0 0 0 0 0 0 0 0 0 0
-0 -0 0 -0 -0 0 0 0 0 0 0 0 0 0 0 0 0 0 0 0 0 0 0 0 0 0 0 0 0 0 0 0 0 0 0 0 0 0 0 0 0 0 0 0
0 0 0 0 0 0 -0 0 0 0 0 0 0 0 0 0 0 0 0 0 0 0 0 0 0 0 0 0 0 0 0 0 0 0 0 0 0 0 0 0 0 0 0 0
0 0 0 0 0 -0 -0 0 0 0 0 0 0 0 0 0 0 0 0 0 0 0 0 0 0 0 0 0 0 0 0 0 0 0 0 0 0 0 0 0 0 0 0 0
0 0 0 0 0 0 0 -0 0 0 0 0 0 0 0 0 0 0 0 0 0 0 0 0 0 0 0 0 0 0 0 0 0 0 0 0 0 0 0 0 0 0 0 0
0 0 0 0 0 0 0 0 0 0 0 0 0 0 0 0 0 0 0 0 0 0 0 0 0 0 0 0 0 0 0 0 0 0 0 0 0 0 0 0 0 0 0 0
0 0 0 0 0 0 0 0 0 0 0 0 0 0 0 0 0 0 0 0 0 0 0 0 0 0 0 0 0 0 0 0 0 0 0 0 0 0 0 0 0 0 0 0
0 0 0 0 0 0 0 0 0 0 0 0 0 0 0 0 0 0 0 0 0 0 0 0 0 0 0 0 0 0 0 0 0 0 0 0 0 0 0 0 0 0 0 0
0 0 0 0 0 0 0 0 0 0 0 0 0 0 0 0 0 0 0 0 0 0 0 0 0 0 0 0 0 0 0 0 0 0 0 0 0 0 0 0 0 0 0 0
0 0 0 0 0 0 0 0 0 0 0 0 0 0 0 0 0 0 0 0 0 0 0 0 0 0 0 0 0 0 0 0 0 0 0 0 0 0 0 0 0 0 0 0
0 0 0 0 0 0 0 0 0 0 0 0 0 0 0 0 0 0 0 0 0 0 0 0 0 0 0 0 0 0 0 0 0 0 0 0 0 0 0 0 0 0 0 0
0 0 0 0 0 0 0 0 0 0 0 0 0 0 0 0 0 0 0 0 0 0 0 0 0 0 0 0 0 0 0 0 0 0 0 0 0 0 0 0 0 0 0 0
0 0 0 0 0 0 0 0 0 0 0 0 0 0 0 0 0 0 0 0 0 0 0 0 0 0 0 0 0 0 0 0 0 0 0 0 0 0 0 0 0 0 0 0
0 0 0 0 0 0 0 0 0 0 0 0 0 0 0 0 0 0 0 0 0 0 0 0 0 0 0 0 0 0 0 0 0 0 0 0 0 0 0 0 0 0 0 0
0 0 0 0 0 0 0 0 0 0 0 0 0 0 0 0 0 0 0 0 0 0 0 0 0 0 0 0 0 0 0 0 0 0 0 0 0 0 0 0 0 0 0 0
0 0 0 0 0 0 0 0 0 0 0 0 0 0 0 0 0 0 0 0 0 0 0 0 0 0 0 0 0 0 0 0 0 0 0 0 0 0 0 0 0 0 0 0
0 0 0 0 0 0 0 0 0 0 0 0 0 0 0 0 0 0 0 0 0 0 0 0 0 0 0 0 0 0 0 0 0 0 0 0 0 0 0 0 0 0 0 0
0 0 0 0 0 0 0 0 0 0 0 0 0 0 0 0 0 0 0 0 0 0 0 0 0 0 0 0 0 0 0 0 0 0 0 0 0 0 0 0 0 0 0 0
0 0 0 0 0 0 0 0 0 0 0 0 0 0 0 0 0 0 0 0 0 0 0 0 0 0 0 0 0 0 0 0 0 0 0 0 0 0 0 0 0 0 0 0
0 0 0 0 0 0 0 0 0 0 0 0 0 0 0 0 0 0 0 0 0 0 0 0 0 0 0 0 0 0 0 0 0 0 0 0 0 0 0 0 0 0 0 0
Wind_Speed_500mb
19 30 28 23 28 24 19 12 17 14 18 24 21 19 33 52 40 33 33 47 51 58 56 63 70 61 56 62 97 104 97 92 104 88 83 87 84 87 88 85 78 56 49 52
18 21 29 33 23 32 32 14 12 22 17 18 35 42 17 49 57 49 44 52 60 65 61 59 56 50 45 39 54 82 91 89 92 91 84 75 73 68 53 67 63 54 52 49
11 8 8 18 44 26 11 10 12 14 18 17 17 18 28 49 57 52 48 48 53 62 61 61 64 59 53 45 46 57 71 82 90 83 73 64 57 55 61 62 57 52 52 50
8 9 30 25 11 16 25 22 15 10 10 15 21 42 35 51 68 74 62 55 56 58 62 70 66 60 53 50 52 54 66 72 70 70 67 65 62 60 52 51 47 45 43 39
9 7 16 17 12 9 19 40 16 19 16 13 36 15 14 30 51 67 70 60 66 67 63 64 66 64 58 56 56 55 58 60 61 60 61 60 56 48 43 40 38 36 36 37
9 6 11 10 16 24 4 8 10 10 19 17 16 4 12 34 38 43 54 53 55 48 52 64 66 64 62 59 55 52 51 52 55 57 52 48 46 44 44 38 40 40 39 36
9 8 15 20 32 18 14 13 28 33 34 14 7 14 41 34 49 43 41 39 36 43 50 62 67 64 59 53 50 46 44 48 48 47 44 42 44 41 40 42 41 42 43 43
6 5 18 18 31 9 4 8 22 33 38 38 50 36 18 26 45 46 49 49 45 48 56 61 62 59 54 49 46 45 47 47 44 42 42 40 38 40 41 42 45 45 44 46
11 12 13 37 12 6 7 13 20 34 42 50 48 32 39 42 44 52 47 44 47 49 55 55 54 49 48 48 48 47 43 42 40 38 34 34 35 38 40 40 43 44 46 45
3 17 27 32 33 26 4 11 12 22 41 43 50 26 35 41 50 51 52 48 47 50 50 51 50 48 46 49 49 44 42 39 36 36 35 32 31 33 36 39 39 40 42 41
11 15 13 32 34 31 21 9 25 21 26 40 33 32 34 42 53 51 46 47 48 50 51 52 50 47 46 46 44 41 39 41 42 38 37 39 40 37 36 38 34 32 34 34
7 20 21 26 36 40 23 11 14 15 22 33 41 26 41 42 44 48 49 52 51 52 52 50 46 43 42 41 39 41 44 41 39 40 41 40 41 43 42 36 33 28 27 27
15 45 26 18 27 19 11 12 17 20 29 23 38 40 48 45 54 53 53 54 54 56 55 53 51 48 44 42 41 40 40 40 40 42 43 40 36 30 30 28 27 25 23 25
41 35 19 39 20 20 17 15 11 11 16 22 36 30 29 34 44 57 60 60 59 58 55 55 54 49 41 37 37 39 42 43 43 40 35 29 22 19 15 13 17 20 21 19
34 34 23 11 15 23 22 15 13 16 15 9 5 22 34 52 56 52 53 61 63 62 57 53 52 50 47 47 47 47 42 37 31 28 23 19 14 20 26 23 21 23 22 24
20 14 21 28 27 27 24 25 26 27 22 19 22 34 47 53 56 59 58 59 65 64 60 59 58 53 48 44 39 31 23 22 26 26 26 28 26 23 24 21 18 21 26 30
12 23 29 28 27 29 31 29 28 28 28 26 31 35 43 54 58 58 58 60 65 63 52 42 37 27 21 18 16 18 17 18 16 16 16 16 16 16 16 19 24 26 27 28
18 16 14 14 17 25 30 32 30 29 35 38 40 45 51 56 70 67 57 47 44 44 41 35 26 19 18 16 13 12 11 8 7 5 6 8 11 15 19 22 24 25 27 28
29 30 31 35 35 35 37 37 37 39 40 42 48 60 62 59 55 52 44 41 41 41 38 28 23 19 18 15 11 10 7 3 2 4 7 11 14 15 16 19 22 26 29 31
51 50 50 53 52 54 55 54 55 59 56 54 56 57 58 53 46 45 43 53 47 42 31 26 22 21 19 16 13 11 10 9 9 11 13 14 15 15 17 20 20 19 22 27
59 61 63 62 62 60 61 57 57 59 55 55 57 58 56 49 44 42 44 50 40 30 27 23 21 19 17 17 16 15 14 13 13 14 15 15 16 18 21 24 26 27 29 32
65 65 64 63 65 65 59 57 57 57 56 55 54 51 49 49 43 45 45 40 31 25 23 23 21 17 15 15 16 16 16 17 17 17 18 20 21 23 24 26 29 31 31 31
62 60 59 58 57 55 51 49 48 46 47 44 42 38 38 37 33 30 33 26 21 23 24 25 23 18 15 17 18 18 19 20 20 20 21 23 26 26 26 27 29 34 38 38
52 50 49 46 45 45 49 43 42 40 40 38 36 33 30 29 31 29 23 18 17 19 21 22 22 20 20 21 21 22 22 21 20 21 22 24 26 30 35 39 41 41 38 37
39 38 36 35 39 40 35 33 33 32 30 32 30 28 26 24 22 21 16 17 19 20 22 24 28 28 28 28 28 26 24 23 25 28 30 31 33 37 39 40 41 40 42 44
33 34 35 33 32 29 27 21 25 25 22 24 24 22 18 16 13 12 14 15 17 18 22 25 26 26 27 29 30 30 31 31 31 33 32 31 33 38 41 41 38 38 41 45
29 27 26 28 26 22 19 17 15 19 16 14 14 13 11 10 10 10 11 12 16 21 24 23 24 26 28 29 28 27 27 28 31 32 34 38 40 40 37 36 38 40 41 44
Wind_Direction_500mb
252 223 224 238 228 226 215 202 190 214 210 225 221 226 230 232 224 218 211 215 203 195 192 194 205 218 228 237 236 234 236 238 230 246 243 242 238 238 244 242 235 230 239 240
281 225 226 229 227 223 245 247 243 235 236 218 225 240 215 216 217 214 218 223 218 205 199 194 206 220 229 225 225 232 235 239 236 240 233 234 229 224 221 220 224 228 237 237
284 210 218 248 223 217 209 202 196 208 220 241 252 239 224 226 221 221 230 215 212 209 212 217 222 227 230 235 221 219 224 229 231 232 231 223 215 207 211 216 221 226 232 231
275 315 223 256 184 216 233 240 221 252 215 230 233 252 264 259 235 226 221 224 219 214 212 217 221 221 223 223 215 217 217 221 225 220 216 203 199 202 211 219 221 229 228 227
294 293 287 300 245 208 208 244 227 244 252 233 257 258 231 237 244 247 235 239 223 212 212 211 218 218 216 211 210 209 210 210 207 205 199 196 197 208 212 217 211 211 216 216
140 300 286 331 242 217 138 286 357 229 233 242 253 236 254 269 242 236 237 230 207 205 211 213 210 214 213 213 215 214 215 210 206 202 206 210 220 216 211 208 207 206 200 200
163 190 246 265 279 283 224 260 328 324 305 276 240 245 265 260 208 202 198 201 212 226 223 215 210 210 211 213 215 221 221 210 205 208 212 208 208 209 208 204 200 196 196 190
135 181 269 226 280 99 205 288 336 343 359 347 346 281 227 206 191 193 199 202 210 214 209 206 208 210 215 218 218 215 213 213 209 207 206 207 209 205 200 195 190 192 201 193
198 213 227 218 275 244 242 282 4 331 343 347 345 284 199 192 200 199 201 203 209 212 200 200 206 212 217 210 211 209 205 201 202 201 205 203 201 197 190 195 197 198 201 200
130 247 241 244 214 202 227 245 296 2 0 352 344 299 268 238 208 202 203 200 204 202 196 195 203 208 216 212 204 204 202 200 196 193 189 188 192 198 201 200 206 201 199 205
229 261 272 244 240 244 216 233 265 268 349 354 340 310 300 241 221 209 205 203 203 203 197 199 201 201 203 203 204 203 202 196 192 194 194 189 187 191 195 198 210 220 218 221
249 340 306 262 257 248 257 313 346 309 273 326 332 306 286 270 242 210 202 198 197 198 196 193 194 195 194 199 206 205 191 191 195 194 191 192 191 185 183 189 193 207 216 222
327 329 43 62 42 32 35 355 307 299 312 322 300 299 277 239 211 202 192 190 188 186 188 185 186 184 182 186 191 196 197 183 177 179 179 182 180 188 201 204 216 223 230 238
11 14 25 24 19 23 18 7 332 298 270 272 269 267 253 202 187 186 182 183 182 181 176 175 173 169 173 187 193 189 183 178 177 172 175 176 183 194 205 226 236 235 245 258
7 16 33 58 17 19 13 16 7 19 18 39 145 158 160 161 161 157 161 165 169 168 159 162 163 151 156 165 170 166 165 157 164 170 179 188 217 241 231 235 260 272 276 270
338 353 39 39 37 37 41 49 49 46 48 62 101 123 136 143 143 145 146 145 150 135 132 137 131 126 141 153 157 163 180 190 185 183 196 215 224 236 244 252 261 259 266 274
13 17 17 30 29 40 47 53 61 66 77 87 100 118 131 135 131 124 119 119 117 115 113 116 116 130 146 157 165 161 168 179 201 217 225 231 237 245 252 259 264 268 271 273
64 70 59 63 59 60 62 63 70 81 88 101 114 118 117 117 110 107 104 105 102 97 92 91 96 99 101 107 123 142 161 182 200 217 248 267 274 279 281 283 285 286 286 283
75 78 79 77 73 78 81 83 87 93 100 106 110 104 103 102 104 105 107 100 94 94 87 92 93 96 96 97 88 88 92 83 6 339 323 314 311 306 298 292 289 288 289 290
86 85 86 87 88 88 90 91 93 93 95 98 99 98 96 98 101 103 101 92 87 89 93 89 87 83 76 68 59 49 36 19 1 345 333 327 324 316 306 306 307 301 295 295
93 93 91 91 90 91 88 90 93 92 94 95 95 95 96 98 97 96 94 88 79 76 74 69 61 58 50 41 29 18 8 358 347 339 331 324 316 311 309 307 304 301 300 298
91 92 92 93 90 88 88 89 90 89 88 88 89 90 91 87 85 83 76 77 71 57 54 52 52 46 34 15 11 3 355 349 345 339 332 326 323 318 314 312 309 307 305 306
94 95 93 90 90 91 89 85 84 85 87 85 81 80 82 84 81 80 79 65 53 46 41 40 38 29 19 6 1 355 350 346 342 335 330 325 322 317 317 317 312 309 309 311
103 100 98 99 99 93 84 83 85 85 85 83 80 79 76 75 78 74 76 69 44 25 25 28 26 20 7 358 350 346 343 341 340 338 334 329 325 319 314 316 317 317 309 302
103 104 104 100 94 92 93 91 89 86 84 81 76 70 66 65 64 73 53 36 20 14 12 8 357 355 353 352 350 352 349 346 340 332 327 325 324 325 324 324 322 316 310 306
107 98 95 92 91 93 92 90 84 81 72 71 70 65 61 61 53 34 20 10 357 352 351 347 347 348 348 347 344 339 336 334 333 335 334 330 328 328 327 327 326 321 317 313
101 100 97 93 85 81 82 82 81 79 68 51 56 54 33 14 9 7 7 1 355 350 350 350 345 343 340 338 335 332 331 328 327 329 325 324 325 326 327 324 321 319 317 316
Wind_Speed_850mb
19 30 28 23 28 24 19 12 17 14 18 24 21 19 33 52 40 33 33 47 51 58 56 63 70 61 56 62 97 104 97 92 104 88 83 87 84 87 88 85 78 56 49 52
18 21 29 33 23 32 32 14 12 22 17 18 35 42 17 49 57 49 44 52 60 65 61 59 56 50 45 39 54 82 91 89 92 91 84 75 73 68 53 67 63 54 52 49
11 8 8 18 44 26 11 10 12 14 18 17 17 18 28 49 57 52 48 48 53 62 61 61 64 59 53 45 46 57 71 82 90 83 73 64 57 55 61 62 57 52 52 50
8 9 30 25 11 16 25 22 15 10 10 15 21 42 35 51 68 74 62 55 56 58 62 70 66 60 53 50 52 54 66 72 70 70 67 65 62 60 52 51 47 45 43 39
9 7 16 17 12 9 19 40 16 19 16 13 36 15 14 30 51 67 70 60 66 67 63 64 66 64 58 56 56 55 58 60 61 60 61 60 56 48 43 40 38 36 36 37
9 6 11 10 16 24 4 8 10 10 19 17 16 4 12 34 38 43 54 53 55 48 52 64 66 64 62 59 55 52 51 52 55 57 52 48 46 44 44 38 40 40 39 36
9 8 15 20 32 18 14 13 28 33 34 14 7 14 41 34 49 43 41 39 36 43 50 62 67 64 59 53 50 46 44 48 48 47 44 42 44 41 40 42 41 42 43 43
6 5 18 18 31 9 4 8 22 33 38 38 50 36 18 26 45 46 49 49 45 48 56 61 62 59 54 49 46 45 47 47 44 42 42 40 38 40 41 42 45 45 44 46
11 12 13 37 12 6 7 13 20 34 42 50 48 32 39 42 44 52 47 44 47 49 55 55 54 49 48 48 48 47 43 42 40 38 34 34 35 38 40 40 43 44 46 45
3 17 27 32 33 26 4 11 12 22 41 43 50 26 35 41 50 51 52 48 47 50 50 51 50 48 46 49 49 44 42 39 36 36 35 32 31 33 36 39 39 40 42 41
11 15 13 32 34 31 21 9 25 21 26 40 33 32 34 42 53 51 46 47 48 50 51 52 50 47 46 46 44 41 39 41 42 38 37 39 40 37 36 38 34 32 34 34
7 20 21 26 36 40 23 11 14 15 22 33 41 26 41 42 44 48 49 52 51 52 52 50 46 43 42 41 39 41 44 41 39 40 41 40 41 43 42 36 33 28 27 27
15 45 26 18 27 19 11 12 17 20 29 23 38 40 48 45 54 53 53 54 54 56 55 53 51 48 44 42 41 40 40 40 40 42 43 40 36 30 30 28 27 25 23 25
41 35 19 39 20 20 17 15 11 11 16 22 36 30 29 34 44 57 60 60 59 58 55 55 54 49 41 37 37 39 42 43 43 40 35 29 22 19 15 13 17 20 21 19
34 34 23 11 15 23 22 15 13 16 15 9 5 22 34 52 56 52 53 61 63 62 57 53 52 50 47 47 47 47 42 37 31 28 23 19 14 20 26 23 21 23 22 24
20 14 21 28 27 27 24 25 26 27 22 19 22 34 47 53 56 59 58 59 65 64 60 59 58 53 48 44 39 31 23 22 26 26 26 28 26 23 24 21 18 21 26 30
12 23 29 28 27 29 31 29 28 28 28 26 31 35 43 54 58 58 58 60 65 63 52 42 37 27 21 18 16 18 17 18 16 16 16 16 16 16 16 19 24 26 27 28
18 16 14 14 17 25 30 32 30 29 35 38 40 45 51 56 70 67 57 47 44 44 41 35 26 19 18 16 13 12 11 8 7 5 6 8 11 15 19 22 24 25 27 28
29 30 31 35 35 35 37 37 37 39 40 42 48 60 62 59 55 52 44 41 41 41 38 28 23 19 18 15 11 10 7 3 2 4 7 11 14 15 16 19 22 26 29 31
51 50 50 53 52 54 55 54 55 59 56 54 56 57 58 53 46 45 43 53 47 42 31 26 22 21 19 16 13 11 10 9 9 11 13 14 15 15 17 20 20 19 22 27
59 61 63 62 62 60 61 57 57 59 55 55 57 58 56 49 44 42 44 50 40 30 27 23 21 19 17 17 16 15 14 13 13 14 15 15 16 18 21 24 26 27 29 32
65 65 64 63 65 65 59 57 57 57 56 55 54 51 49 49 43 45 45 40 31 25 23 23 21 17 15 15 16 16 16 17 17 17 18 20 21 23 24 26 29 31 31 31
62 60 59 58 57 55 51 49 48 46 47 44 42 38 38 37 33 30 33 26 21 23 24 25 23 18 15 17 18 18 19 20 20 20 21 23 26 26 26 27 29 34 38 38
52 50 49 46 45 45 49 43 42 40 40 38 36 33 30 29 31 29 23 18 17 19 21 22 22 20 20 21 21 22 22 21 20 21 22 24 26 30 35 39 41 41 38 37
39 38 36 35 39 40 35 33 33 32 30 32 30 28 26 24 22 21 16 17 19 20 22 24 28 28 28 28 28 26 24 23 25 28 30 31 33 37 39 40 41 40 42 44
33 34 35 33 32 29 27 21 25 25 22 24 24 22 18 16 13 12 14 15 17 18 22 25 26 26 27 29 30 30 31 31 31 33 32 31 33 38 41 41 38 38 41 45
29 27 26 28 26 22 19 17 15 19 16 14 14 13 11 10 10 10 11 12 16 21 24 23 24 26 28 29 28 27 27 28 31 32 34 38 40 40 37 36 38 40 41 44
Wind_Direction_850mb
252 223 224 238 228 226 215 202 190 214 210 225 221 226 230 232 224 218 211 215 203 195 192 194 205 218 228 237 236 234 236 238 230 246 243 242 238 238 244 242 235 230 239 240
281 225 226 229 227 223 245 247 243 235 236 218 225 240 215 216 217 214 218 223 218 205 199 194 206 220 229 225 225 232 235 239 236 240 233 234 229 224 221 220 224 228 237 237
284 210 218 248 223 217 209 202 196 208 220 241 252 239 224 226 221 221 230 215 212 209 212 217 222 227 230 235 221 219 224 229 231 232 231 223 215 207 211 216 221 226 232 231
275 315 223 256 184 216 233 240 221 252 215 230 233 252 264 259 235 226 221 224 219 214 212 217 221 221 223 223 215 217 217 221 225 220 216 203 199 202 211 219 221 229 228 227
294 293 287 300 245 208 208 244 227 244 252 233 257 258 231 237 244 247 235 239 223 212 212 211 218 218 216 211 210 209 210 210 207 205 199 196 197 208 212 217 211 211 216 216
140 300 286 331 242 217 138 286 357 229 233 242 253 236 254 269 242 236 237 230 207 205 211 213 210 214 213 213 215 214 215 210 206 202 206 210 220 216 211 208 207 206 200 200
163 190 246 265 279 283 224 260 328 324 305 276 240 245 265 260 208 202 198 201 212 226 223 215 210 210 211 213 215 221 221 210 205 208 212 208 208 209 208 204 200 196 196 190
135 181 269 226 280 99 205 288 336 343 359 347 346 281 227 206 191 193 199 202 210 214 209 206 208 210 215 218 218 215 213 213 209 207 206 207 209 205 200 195 190 192 201 193
198 213 227 218 275 244 242 282 4 331 343 347 345 284 199 192 200 199 201 203 209 212 200 200 206 212 217 210 211 209 205 201 202 201 205 203 201 197 190 195 197 198 201 200
130 247 241 244 214 202 227 245 296 2 0 352 344 299 268 238 208 202 203 200 204 202 196 195 203 208 216 212 204 204 202 200 196 193 189 188 192 198 201 200 206 201 199 205
229 261 272 244 240 244 216 233 265 268 349 354 340 310 300 241 221 209 205 203 203 203 197 199 201 201 203 203 204 203 202 196 192 194 194 189 187 191 195 198 210 220 218 221
249 340 306 262 257 248 257 313 346 309 273 326 332 306 286 270 242 210 202 198 197 198 196 193 194 195 194 199 206 205 191 191 195 194 191 192 191 185 183 189 193 207 216 222
327 329 43 62 42 32 35 355 307 299 312 322 300 299 277 239 211 202 192 190 188 186 188 185 186 184 182 186 191 196 197 183 177 179 179 182 180 188 201 204 216 223 230 238
11 14 25 24 19 23 18 7 332 298 270 272 269 267 253 202 187 186 182 183 182 181 176 175 173 169 173 187 193 189 183 178 177 172 175 176 183 194 205 226 236 235 245 258
7 16 33 58 17 19 13 16 7 19 18 39 145 158 160 161 161 157 161 165 169 168 159 162 163 151 156 165 170 166 165 157 164 170 179 188 217 241 231 235 260 272 276 270
338 353 39 39 37 37 41 49 49 46 48 62 101 123 136 143 143 145 146 145 150 135 132 137 131 126 141 153 157 163 180 190 185 183 196 215 224 236 244 252 261 259 266 274
13 17 17 30 29 40 47 53 61 66 77 87 100 118 131 135 131 124 119 119 117 115 113 116 116 130 146 157 165 161 168 179 201 217 225 231 237 245 252 259 264 268 271 273
64 70 59 63 59 60 62 63 70 81 88 101 114 118 117 117 110 107 104 105 102 97 92 91 96 99 101 107 123 142 161 182 200 217 248 267 274 279 281 283 285 286 286 283
75 78 79 77 73 78 81 83 87 93 100 106 110 104 103 102 104 105 107 100 94 94 87 92 93 96 96 97 88 88 92 83 6 339 323 314 311 306 298 292 289 288 289 290
86 85 86 87 88 88 90 91 93 93 95 98 99 98 96 98 101 103 101 92 87 89 93 89 87 83 76 68 59 49 36 19 1 345 333 327 324 316 306 306 307 301 295 295
93 93 91 91 90 91 88 90 93 92 94 95 95 95 96 98 97 96 94 88 79 76 74 69 61 58 50 41 29 18 8 358 347 339 331 324 316 311 309 307 304 301 300 298
91 92 92 93 90 88 88 89 90 89 88 88 89 90 91 87 85 83 76 77 71 57 54 52 52 46 34 15 11 3 355 349 345 339 332 326 323 318 314 312 309 307 305 306
94 95 93 90 90 91 89 85 84 85 87 85 81 80 82 84 81 80 79 65 53 46 41 40 38 29 19 6 1 355 350 346 342 335 330 325 322 317 317 317 312 309 309 311
103 100 98 99 99 93 84 83 85 85 85 83 80 79 76 75 78 74 76 69 44 25 25 28 26 20 7 358 350 346 343 341 340 338 334 329 325 319 314 316 317 317 309 302
103 104 104 100 94 92 93 91 89 86 84 81 76 70 66 65 64 73 53 36 20 14 12 8 357 355 353 352 350 352 349 346 340 332 327 325 324 325 324 324 322 316 310 306
107 98 95 92 91 93 92 90 84 81 72 71 70 65 61 61 53 34 20 10 357 352 351 347 347 348 348 347 344 339 336 334 333 335 334 330 328 328 327 327 326 321 317 313
101 100 97 93 85 81 82 82 81 79 68 51 56 54 33 14 9 7 7 1 355 350 350 350 345 343 340 338 335 332 331 328 327 329 325 324 325 326 327 324 321 319 317 316